CAPE
0 0 0 0 0 0 0 0 0 0 0 0 0 0 0 0 0 0 0 0 0 0 1 4 8 13 10
0 0 0 0 0 0 0 0 0 0 0 0 0 0 0 0 0 0 0 0 0 1 2 3 7 12 10
0 0 0 0 0 0 0 0 0 0 0 0 0 0 0 0 0 0 0 0 1 1 3 5 7 6 9
0 0 0 0 0 0 0 0 0 0 0 0 0 0 0 0 0 0 0 0 1 2 3 3 2 2 5
0 0 0 0 0 0 0 0 0 0 0 0 0 0 0 0 0 0 0 0 0 0 1 0 2 3 3
0 0 0 0 0 0 0 0 0 0 0 0 0 0 0 0 0 0 0 0 0 0 0 0 1 2 4
0 0 0 0 0 0 0 0 0 0 0 0 0 0 0 0 0 0 0 0 0 0 0 0 2 4 7
0 0 0 0 0 0 0 0 0 0 0 0 0 0 0 0 0 0 0 0 0 0 0 0 1 4 5
0 0 0 0 0 0 0 0 0 0 0 0 0 0 0 0 0 0 0 0 0 0 0 0 0 2 0
0 0 0 0 0 0 0 0 0 0 0 0 0 0 0 0 0 0 0 0 0 0 0 0 0 0 0
0 0 0 0 0 0 0 0 0 0 0 0 0 0 0 0 0 0 0 0 0 0 0 0 0 0 0
0 0 0 0 0 0 0 0 0 0 0 0 0 0 0 0 0 0 0 0 0 0 0 0 0 0 0
0 0 0 0 0 0 0 0 0 0 0 0 0 0 0 0 0 0 0 0 0 0 0 0 0 0 0
0 0 0 0 0 0 0 0 0 0 0 0 0 0 0 0 0 1 0 0 0 0 0 0 0 0 0
0 0 0 0 0 0 0 0 0 0 0 0 0 0 0 0 0 0 0 0 0 0 0 0 0 0 0
0 0 0 0 0 0 1 0 0 0 0 0 0 0 0 0 0 0 0 0 0 0 0 0 0 0 0
0 0 0 0 0 0 0 0 1 0 0 0 0 1 1 0 0 0 0 0 0 0 0 0 1 0 0
CIN
-0 -0 -0 -0 -0 -0 -0 -0 -0 -0 -0 -0 -0 -0 -0 -0 -0 -0 -0 -0 -0 -0 -1 -0 -0 -0 -1
-0 -0 -0 -0 -0 -0 -0 -0 -0 -0 -0 -0 -0 -0 -0 -0 -0 -0 -0 -0 -0 -0 -0 -0 -1 -0 -0
-0 -0 -0 -0 -0 -0 -0 -0 -0 -0 -0 -0 -0 -0 -0 -0 -0 -0 -0 -0 -0 -0 -0 -1 -0 -1 -1
-0 -0 -0 -0 -0 -0 -0 -0 -0 -0 -0 -0 -0 -0 -0 -0 -0 -0 -0 -0 -0 -0 -0 -1 -1 -0 -1
-0 -0 -0 -0 -0 -0 -0 -0 -0 -0 -0 -0 -0 -0 -0 -0 -0 -0 -0 -0 -0 -0 -0 -0 -0 -1 -1
-0 -0 -0 -0 -0 -0 -0 -0 -0 -0 -0 -0 -0 -0 -0 -0 -0 -0 -0 -0 -0 -0 -0 -0 -1 -1 -1
-0 -0 -0 -0 -0 -0 -0 -0 -0 -0 -0 -0 -0 -0 -0 -0 -0 -0 -0 -0 -0 -0 -0 -1 -1 -1 -1
-0 -0 -0 -0 -0 -0 -0 -0 -0 -0 -0 -0 -0 -0 -0 -0 -0 -0 -0 -0 -0 -0 -0 -0 -1 -1 -1
-0 -0 -0 -0 -0 -0 -0 -0 -0 -0 -0 -0 -0 -0 -0 -0 -0 -0 -0 -0 -0 -0 -0 -0 -0 -1 -0
-0 -0 -0 -0 -0 -0 -0 -0 -0 -0 -0 -0 -0 -0 -0 -0 -0 -0 -0 -0 -0 -0 -0 -0 -0 -1 -0
-0 -0 -0 -0 -0 -0 -0 -0 -0 -0 -0 -0 -0 -0 -0 -0 -0 -0 -0 -0 -0 -0 -0 -0 -0 -0 -1
-0 -0 -0 -0 -0 -0 -0 -0 -0 -0 -0 -0 -0 -0 -1 -0 -0 -0 -0 -0 -0 -0 -0 -0 -0 -0 -1
-0 -0 -0 -0 -0 -0 -0 -0 -0 -0 -0 -0 -0 -0 -1 -0 -0 -0 -0 -0 -0 -0 -0 -0 -0 -0 -0
-0 -0 -0 -0 -0 -0 -0 -0 -0 -0 -0 -0 -0 -0 -0 -0 -0 -0 -0 -1 -0 -0 -0 -0 -0 -0 -0
-0 -0 -0 -0 -0 -0 -0 -0 -0 -0 -0 -0 -0 -0 -0 -0 -0 -0 -0 -0 -0 -0 -0 -0 -0 -0 -0
-0 -0 -0 -0 -0 -1 -0 -0 -0 -0 -0 -0 -0 -0 -0 -0 -0 -0 -0 -0 -0 -0 -0 -0 -0 -0 -0
-0 -0 -0 -0 -0 -0 -0 -0 -0 -0 -0 -1 -3 -1 -0 -0 -0 -0 -0 -0 -0 -0 -0 -0 -0 -0 -0
Wind_Speed
22 19 19 20 19 19 19 21 21 26 28 28 26 29 31 32 33 33 34 35 36 36 36 38 41 42 44
22 21 20 19 21 20 20 23 25 25 26 26 26 29 31 31 31 34 34 34 34 35 38 40 41 43 45
22 20 21 20 20 22 23 23 22 24 26 24 26 30 30 30 31 33 32 33 36 37 39 41 43 44 45
19 17 20 22 21 23 22 21 24 24 23 24 27 28 29 29 29 30 33 34 36 39 41 42 43 45 45
17 18 19 19 20 20 24 24 24 23 25 27 26 27 26 27 29 32 33 34 38 40 42 43 44 44 45
14 13 15 17 18 19 21 23 24 21 26 29 25 26 28 28 31 32 31 35 39 42 42 43 44 45 45
12 15 14 16 16 18 21 22 23 25 27 26 24 29 30 31 32 30 33 38 41 41 42 44 45 44 43
11 12 12 13 16 17 19 21 22 19 24 25 29 29 31 30 29 32 38 39 40 41 43 44 43 42 43
10 11 13 15 16 17 20 22 22 22 23 26 27 33 31 28 31 37 37 39 38 43 42 42 42 43 41
11 13 14 16 17 19 19 20 21 21 23 29 29 34 33 28 34 36 37 36 42 40 40 41 42 42 40
11 13 14 16 18 18 19 20 21 21 24 28 28 31 31 34 35 36 35 39 38 37 38 41 44 43 41
11 13 15 17 18 19 20 20 20 21 23 25 27 31 33 36 36 37 38 37 35 36 39 38 40 39 38
12 14 16 17 18 20 20 22 21 21 23 25 27 29 30 32 35 37 40 36 33 38 37 37 34 32 29
14 14 16 18 19 22 22 24 23 25 25 25 26 28 31 31 31 33 34 33 36 36 35 34 28 30 31
14 15 17 19 20 22 22 23 25 27 29 28 28 29 28 28 29 29 31 33 34 32 34 39 36 30 34
15 17 18 20 21 22 22 24 26 28 29 29 31 33 32 28 25 30 31 32 32 32 32 33 37 18 28
16 17 19 20 21 22 23 25 27 28 28 29 30 33 36 36 28 27 33 30 33 32 31 26 20 26 25
Wind_Direction
296 297 293 295 301 304 310 313 317 315 316 318 322 323 325 326 325 325 326 326 327 328 328 327 326 326 324
294 296 297 300 300 304 310 311 313 317 322 322 322 324 324 326 327 326 327 329 331 331 329 328 328 326 324
294 296 298 300 301 305 308 312 319 320 322 322 325 325 326 327 327 329 332 332 331 331 331 329 327 327 326
291 297 297 298 301 306 311 318 317 322 327 329 328 328 329 330 334 335 334 334 333 332 331 330 329 328 327
295 299 301 309 306 314 312 316 319 327 329 328 330 332 337 338 337 335 335 335 334 333 332 331 331 330 329
310 314 317 314 317 320 320 319 321 333 330 328 335 338 340 339 337 338 338 337 335 334 334 334 333 332 331
315 312 320 319 321 322 323 323 325 327 331 334 347 341 341 341 340 341 340 338 337 337 336 335 334 334 333
336 331 336 340 334 331 332 329 331 346 349 342 344 344 344 344 347 345 341 340 339 339 338 337 337 336 335
2 355 347 342 339 339 333 332 339 346 352 349 349 345 348 349 349 346 344 343 343 342 341 341 340 338 339
351 354 352 348 342 339 350 349 351 354 357 351 350 349 349 353 349 349 348 348 346 346 345 344 343 341 341
357 352 346 343 347 1 359 358 358 359 357 356 353 353 352 348 349 351 352 349 349 350 349 347 343 343 343
360 353 353 356 5 2 360 2 2 0 359 0 356 354 352 349 350 351 351 351 353 353 351 351 349 349 347
9 2 2 7 2 2 3 3 4 7 6 4 1 357 355 352 349 350 350 355 358 355 356 356 357 358 360
9 23 10 8 6 1 3 3 5 3 6 6 4 1 357 355 353 353 355 357 356 359 360 359 5 4 1
30 18 12 8 6 7 8 7 4 1 1 4 4 2 359 356 356 358 358 358 0 2 3 358 0 6 314
15 11 6 6 7 8 8 7 4 2 3 4 3 1 2 7 10 3 1 0 2 4 5 4 359 340 306
13 11 9 8 7 8 7 6 4 4 4 5 5 4 1 360 5 10 0 2 1 3 6 9 5 303 303